Regional Weather Roundup
Issued by NWS

Home | Current Version | Previous Version | Text Only | Print | Product List | Glossary On
Versions: 1 2 3 4 5 6 7 8 9 10 11 12 13 14 15 16 17 18 19 20 21 22 23 24 25 26 27 28 29 30 31 32 33 34 35 36 37 38 39 40 41 42 43 44 45 46 47 48 49 50
000
ASUS43 KMKX 291259
RWRWI

WISCONSIN REGIONAL WEATHER ROUNDUP
NATIONAL WEATHER SERVICE MILWAUKEE/SULLIVAN WI
700 AM CST THU JAN 29 2015

NOTE: "FAIR" INDICATES FEW OR NO CLOUDS BELOW 12,000 FEET WITH NO
SIGNIFICANT WEATHER AND/OR OBSTRUCTIONS TO VISIBILITY.

WIZ001-002-006>008-014>016-023>028-291400-
NORTHWEST WISCONSIN

CITY           SKY/WX    TMP DP  RH WIND       PRES   REMARKS
SUPERIOR ARPT  CLOUDY    31  25  77 NW12G20   30.01R WCI  22
ASHLAND        CLOUDY    30  24  78 NW13G22   29.96R WCI  20
HAYWARD        CLOUDY    29  24  82 MISG      29.96R
SIREN          CLOUDY    31  26  83 N14G25    30.01R WCI  21
CUMBERLAND     CLOUDY    30  27  86 NW18G29   29.95R WCI  18
RICE LAKE      CLOUDY    32  26  80 NW12G22   29.97R WCI  23
CHETEK         MIX PCPN  31  28  90 NW8       29.95R WCI  24
LADYSMITH      CLOUDY    31  28  88 NW13      29.92R WCI  21
EAU CLAIRE     CLOUDY    32  26  78 N12       29.95R WCI  23
MENOMONIE      CLOUDY    33  29  86 NW12      29.96R WCI  24
NEW RICHMOND   CLOUDY    31  27  84 N26G32    30.00R WCI  18
OSCEOLA        CLOUDY    32  29  90 N13G23    30.04R WCI  22
$$

WIZ003>005-009-010-017-018-291400-
NORTH CENTRAL WISCONSIN

CITY           SKY/WX    TMP DP  RH WIND       PRES   REMARKS
MANITOWISH WTR CLOUDY    27  24  91 N8G20     29.83R WCI  18
ARBOR VITAE    CLOUDY    29  26  87 N17G26    29.82R WCI  17
WOODRUFF       CLOUDY    29  26  87 N17G26    29.82R WCI  17
RHINELANDER    CLOUDY    27  24  89 NW15G23   29.82R WCI  15
EAGLE RIVER    CLOUDY    27  24  87 NW12G22   29.80R WCI  17
LAND O LAKES   CLOUDY    28  25  87 NW10G29   29.81R WCI  19
PHILLIPS       CLOUDY    28  25  89 NW12      29.86R WCI  18
TOMAHAWK       CLOUDY    27  25  91 NW8G18    29.84R FOG     WCI  19
MEDFORD        CLOUDY    27  26  96 NW12G18   29.85R FOG     WCI  16
MERRILL        CLOUDY    28  26  96 N8        29.83R FOG     WCI  19
$$

WIZ029-030-035-036-043>047-291400-
CENTRAL WISCONSIN

CITY           SKY/WX    TMP DP  RH WIND       PRES   REMARKS
WAUSAU         CLOUDY    28  25  88 NW10      29.84R WCI  19
MOSINEE        CLOUDY    27  27 100 NW10      29.86R FOG     WCI  17
MARSHFIELD     CLOUDY    29  26  89 NW15      29.88R FOG     WCI  18
STEVENS POINT  CLOUDY    26  24  90 NW10      29.85R FOG     WCI  17
WAUPACA        CLOUDY    31  26  82 NW12      29.83R HAZE    WCI  22
WAUTOMA        NOT AVBL
WISC RAPIDS    CLOUDY    29  24  82 NW13      29.89R WCI  19
CAMP DOUGLAS   CLOUDY    28  28 100 NW13G20   29.88R WCI  18
$$

WIZ011>013-019>022-031-037>040-048>050-291400-
NORTHEAST WISCONSIN

CITY           SKY/WX    TMP DP  RH WIND       PRES   REMARKS
ANTIGO         CLOUDY    25  25  97 NW10      29.81R FOG     WCI  15
SHAWANO        CLOUDY    31  26  81 NW7       29.81R WCI  24
OCONTO         CLOUDY    29  27  91 MISG      29.79R
STURGEON BAY   CLOUDY    28  25  86 NW10      29.80R WCI  19
GREEN BAY      CLOUDY    30  25  81 NW12      29.80R HAZE    WCI  20
MANITOWOC      NOT AVBL
APPLETON       CLOUDY    28  25  86 NW17      29.81R FOG     WCI  16
CLINTONVILLE   CLOUDY    30  25  80 NW10      29.81R WCI  21
OSHKOSH        CLOUDY    30  25  81 NW13      29.81R HAZE    WCI  20
$$

WIZ032>034-041-042-053>061-291400-
SOUTHWEST WISCONSIN

CITY           SKY/WX    TMP DP  RH WIND       PRES   REMARKS
LA CROSSE      CLOUDY    34  29  82 NW10      29.95R WCI  26
SPARTA         CLOUDY    31  29  94 NW9       29.92R FOG     WCI  23
VIROQUA        CLOUDY    30  30 100 NW14      29.89R WCI  19
BOSCOBEL       CLOUDY    34  26  72 NW10G18   29.93R WCI  26
PRAIRIE DU CHI CLOUDY    33  27  79 NW9       29.93R WCI  25
PLATTEVILLE    CLOUDY    32  29  88 NW18G26   29.87R WCI  20
$$

WIZ056-057-062-063-064-067-068-291400-
SOUTH CENTRAL WISCONSIN

CITY           SKY/WX    TMP DP  RH WIND       PRES   REMARKS
REEDSBURG      CLOUDY    30  26  87 NW13G18   29.86R WCI  20
BARABOO/DELLS  CLOUDY    29  26  89 NW12G18   29.85R FOG     WCI  20
LONE ROCK      NOT AVBL
MINERAL POINT  CLOUDY    32  30  93 NW15      29.85R WCI  22
MADISON        CLOUDY    31  26  82 NW16G24   29.83R WCI  20
MIDDLETON      CLOUDY    32  28  86 NW15      29.83R WCI  22
WATERTOWN      CLOUDY    30  28  91 NW10G20   29.79R WCI  21
MONROE         CLOUDY    32  30  93 N13G24    29.81R WCI  22
JANESVILLE     CLOUDY    34  28  80 NW13      29.80R WCI  25
$$

WIZ051-052-058>065-066-070>072-291400-
SOUTHEAST WISCONSIN

CITY           SKY/WX    TMP DP  RH WIND       PRES   REMARKS
MILWAUKEE      FLURRIES  33  25  72 NW9       29.76R WCI  25
WAUKESHA       CLOUDY    30  25  80 NW16      29.78R WCI  19
MILWAUKEE/TIMM CLOUDY    32  25  74 NW6       29.78R WCI  26
RACINE         CLOUDY    33  26  75 NW8       29.77R WCI  26
BURLINGTON     CLOUDY    31  25  78 NW9       29.77R WCI  23
KENOSHA        CLOUDY    33  27  78 NW8       29.76R WCI  26
FOND DU LAC    LGT SNOW  30  25  81 NW16      29.80R WCI  19
SHEBOYGAN      CLOUDY    31  25  78 NW12      29.77R WCI  22
WEST BEND      CLOUDY    32  25  74 NW8G16    29.77R WCI  25
JUNEAU         CLOUDY    29  26  89 NW12      29.80R FOG     WCI  20
$$

LSZ147-162-291400-
LAKE SUPERIOR

STATION/POSITION TIME  TEMP    WIND        PRES    WAVE
                       AIR SEA DIR/SP/G            HT/PER
                 (UTC) (F)     (DEG/KT/KT) (MB)    (FT/S)
DEVILS ISLAND    1200   31     330/ 26/ 28 1013.9R
PORT WING        1200   32     320/ 19/ 24 1014.9
SAXON HARBOR     1240   32     330/ 16/ 18 1013.5R
$$

LMZ867-665-643>646-291400-
LAKE MICHIGAN

STATION/POSITION TIME  TEMP    WIND        PRES    WAVE
                       AIR SEA DIR/SP/G            HT/PER
                 (UTC) (F)     (DEG/KT/KT) (MB)    (FT/S)
NORTHPORT PIER   1200   30     300/  6/ 11 1007.8S
SISTER BAY       1213   29     340/  9/ 10   N/A
KEWAUNEE LAKESHO 1200   30     320/  2/  5 1006.9R
SHEBOYGAN LAKESH 1200   33     320/  8/  9 1008.3R
PORT WASHINGTON  1200   33        CALM     1008.1
MILWAUKEE LAKESH 1200   34     310/  4/  7   N/A
KENOSHA   LAKESH 1200   33     330/  2/  3 1006.8R
$$

TC  - TEMPERATURE IN CELSIUS
VSB - VISIBILITY IN STATUTE MILES
WCI - WIND CHILL INDEX
HX  - HEAT INDEX




USA.gov is the U.S. government's official web portal to all federal, state and local government web resources and services.